| time (UTC) | temp C | wind direction | speed KPH | gust KPH | rain 1hr cm | rain 24hr cm | rain mn cm | humidity % | barometer mb |
| 20260506215522 | 13 | 0.0 | 0.0 | 0.00 | 0.23 | 0.23 | 93 | 1012.4 | |
| 20260506214519 | 13 | 0.0 | 0.0 | 0.00 | 0.23 | 0.23 | 93 | 1012.3 | |
| 20260506213524 | 13 | 0.0 | 0.0 | 0.00 | 0.23 | 0.23 | 92 | 1012.3 | |
| 20260506212520 | 14 | 0.0 | 0.0 | 0.00 | 0.23 | 0.23 | 92 | 1012.3 | |
| 20260506211521 | 14 | 0.0 | 0.0 | 0.00 | 0.23 | 0.23 | 93 | 1012.3 | |
| 20260506210528 | 14 | 0.0 | 0.0 | 0.00 | 0.23 | 0.23 | 92 | 1012.2 | |
| 20260506205516 | 14 | 0.0 | 0.0 | 0.00 | 0.23 | 0.23 | 92 | 1012.1 | |
| 20260506204523 | 14 | 0.0 | 0.0 | 0.00 | 0.23 | 0.23 | 92 | 1012.1 | |
| 20260506203520 | 14 | 0.0 | 0.0 | 0.00 | 0.23 | 0.23 | 91 | 1012.2 | |
| 20260506202518 | 14 | 0.0 | 0.0 | 0.00 | 0.23 | 0.23 | 91 | 1012.1 | |
| 20260506201526 | 15 | 0.0 | 0.0 | 0.00 | 0.23 | 0.23 | 91 | 1012.0 | |
| 20260506200524 | 15 | 0.0 | 0.0 | 0.00 | 0.23 | 0.23 | 90 | 1011.8 | |
| 20260506195520 | 15 | 0.0 | 0.0 | 0.00 | 0.23 | 0.23 | 90 | 1011.7 | |
| 20260506194517 | 15 | 0.0 | 0.0 | 0.00 | 0.23 | 0.23 | 90 | 1011.5 | |
| 20260506193518 | 16 | 16 | 0.0 | 3.2 | 0.00 | 0.23 | 0.23 | 90 | 1011.6 |
| 20260506192522 | 16 | 0.0 | 0.0 | 0.00 | 0.23 | 0.23 | 90 | 1011.6 | |
| 20260506191526 | 16 | 7 | 0.0 | 3.2 | 0.00 | 0.23 | 0.23 | 89 | 1011.3 |
| 20260506190518 | 16 | 27 | 0.0 | 3.2 | 0.00 | 0.23 | 0.23 | 89 | 1011.4 |
| 20260506185516 | 16 | 13 | 1.6 | 4.8 | 0.00 | 0.23 | 0.23 | 89 | 1011.3 |
| 20260506184517 | 16 | 19 | 0.0 | 1.6 | 0.00 | 0.23 | 0.23 | 89 | 1011.2 |
| 20260506183518 | 16 | 319 | 0.0 | 1.6 | 0.00 | 0.23 | 0.23 | 88 | 1010.9 |
| 20260506182524 | 16 | 21 | 3.2 | 6.4 | 0.00 | 0.23 | 0.23 | 88 | 1011.0 |
| 20260506181521 | 17 | 18 | 1.6 | 4.8 | 0.00 | 0.23 | 0.23 | 88 | 1010.7 |
| 20260506180520 | 17 | 18 | 3.2 | 4.8 | 0.00 | 0.23 | 0.23 | 88 | 1010.8 |
| 20260506175526 | 17 | 0.0 | 0.0 | 0.00 | 0.23 | 0.23 | 88 | 1010.7 | |
| 20260506174517 | 17 | 12 | 1.6 | 3.2 | 0.00 | 0.23 | 0.23 | 87 | 1010.6 |
| 20260506173522 | 17 | 321 | 0.0 | 1.6 | 0.00 | 0.23 | 0.23 | 87 | 1010.6 |
| 20260506172520 | 17 | 3 | 1.6 | 4.8 | 0.00 | 0.23 | 0.23 | 87 | 1010.7 |
| 20260506171517 | 17 | 306 | 0.0 | 1.6 | 0.00 | 0.23 | 0.23 | 86 | 1010.6 |
| 20260506170518 | 17 | 0.0 | 0.0 | 0.00 | 0.23 | 0.23 | 86 | 1010.6 | |
| 20260506165526 | 17 | 306 | 0.0 | 3.2 | 0.00 | 0.23 | 0.23 | 85 | 1010.6 |
| 20260506164519 | 18 | 286 | 0.0 | 1.6 | 0.00 | 0.23 | 0.23 | 84 | 1010.6 |
| 20260506163526 | 18 | 0.0 | 0.0 | 0.00 | 0.23 | 0.23 | 84 | 1010.5 | |
| 20260506162530 | 18 | 251 | 0.0 | 3.2 | 0.00 | 0.23 | 0.23 | 83 | 1010.7 |
| 20260506161521 | 18 | 298 | 0.0 | 1.6 | 0.00 | 0.23 | 0.23 | 81 | 1010.8 |
| 20260506160518 | 20 | 251 | 0.0 | 1.6 | 0.00 | 0.23 | 0.23 | 81 | 1010.7 |
| 20260506155518 | 20 | 0.0 | 0.0 | 0.00 | 0.23 | 0.23 | 82 | 1010.8 | |
| 20260506154519 | 20 | 252 | 0.0 | 3.2 | 0.00 | 0.23 | 0.23 | 83 | 1010.6 |
| 20260506153528 | 19 | 319 | 1.6 | 3.2 | 0.00 | 0.23 | 0.23 | 84 | 1010.7 |
| 20260506153024 | 18 | 287 | 1.6 | 3.2 | 0.00 | 0.23 | 0.23 | 84 | 1010.6 |
| 20260506152020 | 18 | 203 | 0.0 | 1.6 | 0.00 | 0.23 | 0.23 | 84 | 1010.7 |
| 20260506151021 | 18 | 283 | 0.0 | 1.6 | 0.00 | 0.23 | 0.23 | 85 | 1010.6 |
| 20260506142518 | 18 | 350 | 0.0 | 3.2 | 0.00 | 0.23 | 0.23 | 88 | 1010.8 |
| 20260506141519 | 18 | 4 | 0.0 | 4.8 | 0.03 | 0.23 | 0.23 | 89 | 1010.8 |
| 20260506140519 | 18 | 351 | 1.6 | 4.8 | 0.10 | 0.23 | 0.23 | 89 | 1011.0 |
| 20260506135020 | 17 | 335 | 0.0 | 1.6 | 0.18 | 0.23 | 0.23 | 89 | 1011.0 |
| 20260506134017 | 17 | 333 | 0.0 | 3.2 | 0.18 | 0.23 | 0.23 | 89 | 1011.1 |
| 20260506133518 | 17 | 326 | 0.0 | 4.8 | 0.18 | 0.23 | 0.23 | 89 | 1011.4 |
| 20260506132517 | 17 | 297 | 0.0 | 1.6 | 0.18 | 0.23 | 0.23 | 88 | 1011.4 |
| 20260506132019 | 16 | 297 | 0.0 | 3.2 | 0.15 | 0.23 | 0.23 | 87 | 1011.5 |
| 20260506131018 | 17 | 238 | 1.6 | 4.8 | 0.10 | 0.18 | 0.18 | 86 | 1011.5 |
| 20260506130518 | 17 | 0.0 | 0.0 | 0.08 | 0.15 | 0.15 | 86 | 1011.5 | |
| 20260506130020 | 17 | 307 | 0.0 | 1.6 | 0.03 | 0.10 | 0.10 | 85 | 1011.6 |
| 20260506125523 | 17 | 307 | 0.0 | 1.6 | 0.00 | 0.08 | 0.08 | 85 | 1011.7 |
| 20260506125022 | 18 | 293 | 0.0 | 6.4 | 0.00 | 0.08 | 0.08 | 84 | 1011.5 |
| 20260506124521 | 18 | 346 | 1.6 | 3.2 | 0.00 | 0.08 | 0.08 | 84 | 1011.5 |
| 20260506123022 | 18 | 358 | 1.6 | 4.8 | 0.00 | 0.08 | 0.08 | 83 | 1011.3 |
| 20260506122030 | 18 | 314 | 1.6 | 3.2 | 0.00 | 0.08 | 0.08 | 82 | 1011.5 |
| 20260506121018 | 19 | 297 | 0.0 | 3.2 | 0.00 | 0.08 | 0.08 | 80 | 1011.6 |
| 20260506120019 | 20 | 7 | 1.6 | 3.2 | 0.00 | 0.08 | 0.08 | 78 | 1011.8 |
| 20260506115017 | 20 | 339 | 1.6 | 4.8 | 0.00 | 0.08 | 0.08 | 79 | 1011.9 |
| 20260506114018 | 21 | 310 | 1.6 | 3.2 | 0.00 | 0.08 | 0.08 | 79 | 1012.0 |
| 20260506113023 | 21 | 322 | 0.0 | 3.2 | 0.00 | 0.08 | 0.08 | 80 | 1012.1 |
| 20260506112528 | 21 | 3 | 1.6 | 3.2 | 0.00 | 0.08 | 0.08 | 81 | 1012.1 |
| 20260506112016 | 20 | 357 | 1.6 | 4.8 | 0.00 | 0.08 | 0.08 | 84 | 1012.3 |
| 20260506111519 | 20 | 357 | 1.6 | 6.4 | 0.00 | 0.08 | 0.08 | 86 | 1012.1 |
| 20260506111021 | 18 | 316 | 0.0 | 1.6 | 0.00 | 0.08 | 0.08 | 86 | 1012.2 |
| 20260506110018 | 17 | 319 | 1.6 | 3.2 | 0.00 | 0.08 | 0.08 | 86 | 1012.4 |
| 20260506105531 | 17 | 0.0 | 0.0 | 0.00 | 0.08 | 0.08 | 86 | 1012.5 | |
| 20260506104017 | 17 | 300 | 0.0 | 1.6 | 0.00 | 0.08 | 0.08 | 87 | 1012.3 |
| 20260506103025 | 17 | 276 | 0.0 | 1.6 | 0.03 | 0.08 | 0.08 | 87 | 1012.6 |
| 20260506102018 | 17 | 277 | 0.0 | 3.2 | 0.05 | 0.08 | 0.08 | 87 | 1012.7 |
| 20260506101021 | 17 | 282 | 0.0 | 3.2 | 0.05 | 0.08 | 0.08 | 87 | 1012.6 |
| 20260506100017 | 17 | 306 | 0.0 | 3.2 | 0.05 | 0.08 | 0.08 | 87 | 1012.5 |
| 20260506095020 | 17 | 280 | 0.0 | 4.8 | 0.03 | 0.08 | 0.05 | 86 | 1012.7 |
| 20260506094021 | 17 | 0.0 | 0.0 | 0.03 | 0.08 | 0.05 | 85 | 1012.6 | |
| 20260506093528 | 17 | 248 | 0.0 | 1.6 | 0.03 | 0.05 | 0.05 | 85 | 1012.7 |
| 20260506092518 | 17 | 248 | 0.0 | 1.6 | 0.00 | 0.05 | 0.05 | 84 | 1012.8 |
| 20260506091519 | 17 | 0.0 | 0.0 | 0.00 | 0.05 | 0.03 | 83 | 1012.6 | |
| 20260506091025 | 18 | 248 | 0.0 | 3.2 | 0.00 | 0.08 | 0.03 | 83 | 1012.7 |
| 20260506085022 | 18 | 248 | 1.6 | 3.2 | 0.00 | 0.10 | 0.03 | 83 | 1012.4 |
| 20260506084021 | 18 | 248 | 0.0 | 1.6 | 0.00 | 0.10 | 0.03 | 86 | 1012.3 |
| 20260506083017 | 18 | 249 | 0.0 | 1.6 | 0.00 | 0.10 | 0.03 | 87 | 1012.2 |
| 20260506082522 | 17 | 249 | 0.0 | 1.6 | 0.00 | 0.10 | 0.03 | 87 | 1012.2 |
| 20260506081531 | 17 | 249 | 0.0 | 1.6 | 0.00 | 0.10 | 0.03 | 88 | 1012.2 |
| 20260506080518 | 17 | 249 | 0.0 | 1.6 | 0.00 | 0.10 | 0.03 | 90 | 1012.2 |
| 20260506073522 | 16 | 257 | 0.0 | 1.6 | 0.00 | 0.10 | 0.03 | 93 | 1012.5 |
| 20260506072525 | 16 | 0.0 | 0.0 | 0.00 | 0.10 | 0.03 | 93 | 1012.4 | |
| 20260506071517 | 15 | 332 | 0.0 | 1.6 | 0.00 | 0.10 | 0.03 | 93 | 1012.6 |
| 20260506070520 | 15 | 332 | 0.0 | 1.6 | 0.00 | 0.10 | 0.03 | 94 | 1012.5 |
| 20260506062517 | 14 | 0.0 | 0.0 | 0.00 | 0.10 | 0.03 | 94 | 1012.4 | |
| 20260506061518 | 14 | 0.0 | 0.0 | 0.00 | 0.10 | 0.03 | 94 | 1012.4 | |
| 20260506060517 | 13 | 0.0 | 0.0 | 0.00 | 0.10 | 0.03 | 94 | 1012.4 | |
| 20260506050517 | 13 | 293 | 0.0 | 3.2 | 0.00 | 0.08 | 0.03 | 94 | 1012.9 |
| 20260506044522 | 13 | 24 | 0.0 | 1.6 | 0.03 | 0.08 | 0.03 | 94 | 1012.4 |
| 20260506043521 | 13 | 24 | 1.6 | 3.2 | 0.03 | 0.08 | 0.03 | 94 | 1012.3 |
| 20260506042517 | 13 | 347 | 0.0 | 1.6 | 0.03 | 0.08 | 0.03 | 94 | 1012.3 |
| 20260506041524 | 13 | 345 | 0.0 | 1.6 | 0.03 | 0.08 | 0.03 | 94 | 1012.4 |
| 20260506040529 | 12 | 0.0 | 0.0 | 0.00 | 0.08 | 0.00 | 94 | 1012.3 | |
| 20260506035519 | 12 | 344 | 0.0 | 1.6 | 0.00 | 0.08 | 0.00 | 94 | 1012.2 |
| 20260506034520 | 12 | 274 | 0.0 | 1.6 | 0.00 | 0.05 | 0.00 | 94 | 1012.6 |
| 20260506033523 | 12 | 12 | 0.0 | 1.6 | 0.00 | 0.05 | 0.00 | 94 | 1012.6 |
| 20260506032519 | 12 | 0.0 | 0.0 | 0.00 | 0.05 | 0.00 | 94 | 1012.8 | |
| 20260506031524 | 12 | 0.0 | 0.0 | 0.00 | 0.05 | 0.00 | 94 | 1012.8 | |
| 20260506030523 | 12 | 12 | 0.0 | 1.6 | 0.00 | 0.05 | 0.00 | 93 | 1012.8 |
| 20260506025519 | 12 | 0.0 | 0.0 | 0.00 | 0.05 | 0.00 | 94 | 1012.9 | |
| 20260506024524 | 12 | 0.0 | 0.0 | 0.00 | 0.05 | 0.00 | 93 | 1013.0 | |
| 20260506023519 | 12 | 13 | 0.0 | 1.6 | 0.00 | 0.05 | 0.00 | 94 | 1013.1 |
| 20260506022522 | 12 | 13 | 0.0 | 1.6 | 0.00 | 0.05 | 0.00 | 94 | 1013.1 |
| 20260506021524 | 12 | 0.0 | 0.0 | 0.00 | 0.05 | 0.00 | 93 | 1013.1 | |
| 20260506020519 | 12 | 336 | 0.0 | 1.6 | 0.00 | 0.05 | 0.00 | 93 | 1013.3 |
| 20260506015521 | 12 | 0.0 | 0.0 | 0.00 | 0.05 | 0.00 | 93 | 1013.3 | |
| 20260506014522 | 12 | 13 | 0.0 | 1.6 | 0.00 | 0.05 | 0.00 | 93 | 1013.4 |
| 20260506013521 | 12 | 0.0 | 0.0 | 0.00 | 0.05 | 0.00 | 93 | 1013.5 | |
| 20260506012522 | 12 | 0.0 | 0.0 | 0.00 | 0.05 | 0.00 | 93 | 1013.5 | |
| 20260506011518 | 12 | 13 | 0.0 | 1.6 | 0.00 | 0.05 | 0.00 | 93 | 1013.4 |
| 20260506010517 | 12 | 0.0 | 0.0 | 0.00 | 0.05 | 0.00 | 93 | 1013.7 | |
| 20260506005528 | 12 | 0.0 | 0.0 | 0.00 | 0.05 | 0.00 | 93 | 1013.7 | |
| 20260506004518 | 12 | 0.0 | 0.0 | 0.00 | 0.05 | 0.00 | 92 | 1013.6 | |
| 20260506003521 | 12 | 0.0 | 0.0 | 0.00 | 0.05 | 0.00 | 92 | 1013.7 | |
| 20260506002520 | 12 | 0.0 | 0.0 | 0.00 | 0.05 | 0.00 | 92 | 1013.7 | |
| 20260506001518 | 12 | 0.0 | 0.0 | 0.00 | 0.05 | 0.00 | 92 | 1013.6 | |
| 20260506000527 | 12 | 0.0 | 0.0 | 0.00 | 0.05 | 0.00 | 92 | 1013.8 | |
| 20260505235524 | 12 | 0.0 | 0.0 | 0.00 | 0.05 | 0.00 | 92 | 1013.7 | |
| 20260505234516 | 13 | 0.0 | 0.0 | 0.00 | 0.05 | 0.00 | 92 | 1013.7 | |
| 20260505233525 | 13 | 16 | 0.0 | 3.2 | 0.00 | 0.05 | 0.00 | 92 | 1013.8 |
| 20260505232516 | 13 | 16 | 1.6 | 4.8 | 0.00 | 0.05 | 0.00 | 92 | 1013.8 |
| 20260505231522 | 13 | 13 | 1.6 | 4.8 | 0.00 | 0.05 | 0.00 | 92 | 1014.0 |
| 20260505230519 | 13 | 35 | 0.0 | 1.6 | 0.00 | 0.05 | 0.00 | 92 | 1014.1 |
| 20260505225518 | 13 | 17 | 0.0 | 3.2 | 0.00 | 0.05 | 0.00 | 92 | 1014.2 |
| 20260505224524 | 13 | 16 | 1.6 | 3.2 | 0.00 | 0.05 | 0.00 | 92 | 1014.3 |
| 20260505223525 | 13 | 0.0 | 0.0 | 0.00 | 0.05 | 0.00 | 91 | 1014.5 | |
| 20260505222516 | 13 | 9 | 0.0 | 4.8 | 0.00 | 0.05 | 0.00 | 91 | 1014.5 |
| 20260505221523 | 13 | 15 | 1.6 | 3.2 | 0.00 | 0.05 | 0.00 | 91 | 1014.6 |
| 20260505220519 | 13 | 14 | 1.6 | 4.8 | 0.00 | 0.05 | 0.05 | 91 | 1014.6 |